Simultaneous Nadir Overpasses (SNOs) Predictions

Prediction of SNOs between METOP-A and TERRA Satellite Orbit:

Table of predicted SNOs for the next 14.0 days since TLE Epoch: 4/18/2020
Index Date (METOP-A) Time (METOP-A) Lat,Lon (METOP-A) SZA (METOP-A ) Date (TERRA) Time (TERRA) Lat,Lon (TERRA) SZA (TERRA ) Distance(km) Time Diff (sec)
1 04/20/2020 05:31:55 81.42, 146.71 72.86 04/20/2020 05:32:49 81.42, 146.54 72.87 2.77 54
2 04/20/2020 06:22:36 -81.42, -46.06 107.17 04/20/2020 06:22:16 -81.42, -45.92 107.16 2.39 20
3 04/23/2020 01:06:18 81.43,-147.14 71.91 04/23/2020 01:07:02 81.42,-147.09 71.93 1.18 44
4 04/23/2020 01:56:58 -81.42, 20.52 108.07 04/23/2020 01:56:29 -81.42, 20.48 108.09 0.83 29
5 04/25/2020 20:40:39 81.42, -80.61 71.02 04/25/2020 20:41:14 81.41, -80.78 71.01 2.96 35
6 04/25/2020 21:31:20 -81.42, 86.70 109.00 04/25/2020 21:30:41 -81.41, 86.81 109.01 2.30 39
7 04/28/2020 16:15:01 81.42, -14.09 70.16 04/28/2020 16:15:26 81.42, -14.14 70.17 0.91 25
8 04/28/2020 17:05:41 -81.41, 153.65 109.81 04/28/2020 17:04:53 -81.42, 153.47 109.85 3.20 48
9 05/01/2020 11:49:23 81.42, 52.42 69.33 05/01/2020 11:49:38 81.43, 52.44 69.35 1.46 15




NCC Satellite Simultaneous Nadir Overpasses (SNOs) Prediction Service
